Regional Weather Roundup
Issued by NWS

Home | Current Version | Previous Version | Graphics & Text | Print | Product List | Glossary On
Versions: 1 2 3 4 5 6 7 8 9 10 11 12 13 14 15 16 17 18 19 20 21 22 23 24 25 26 27 28 29 30 31 32 33 34 35 36 37 38 39 40 41 42 43 44 45 46 47 48 49 50
279
ASUS45 KBOI 190110
RWRID

IDAHO REGIONAL WEATHER ROUNDUP
NATIONAL WEATHER SERVICE BOISE ID
600 PM MST WED JAN 18 2017

NOTE: "FAIR" INDICATES FEW OR NO CLOUDS BELOW 12000 FEET
WITH NO SIGNIFICANT WEATHER AND/OR OBSTRUCTIONS TO VISIBILITY

IDZ012-014-190200-
SOUTHWEST IDAHO


CITY           SKY/WX    TMP DP  RH WIND       PRES   REMARKS
BOISE          FRZ RAIN  32  30  92 S16       29.77F WCI  21
CALDWELL       LGT SNOW  31  29  92 SE16      29.79F FOG     WCI  20
MOUNTAIN HOME  CLOUDY    32  27  83 SE21      29.80F WCI  19
$$

IDZ016-017-190200-
SOUTHCENTRAL IDAHO


CITY           SKY/WX    TMP DP  RH WIND       PRES   REMARKS
BURLEY         CLOUDY    32  22  66 NE8       29.81F WCI  25
JEROME         CLOUDY    27  20  75 NE25      29.81F WCI  12
TWIN FALLS     CLOUDY    28  22  78 E12       29.80F WCI  18
$$

IDZ019>023-190200-
SOUTHEAST IDAHO


CITY           SKY/WX    TMP DP  RH WIND       PRES   REMARKS
IDAHO FALLS    CLOUDY    16  11  80 N8        29.91F WCI   5
POCATELLO      CLOUDY    21  15  78 CALM      29.89F
REXBURG        CLOUDY    19  13  77 NW5       29.89F WCI  12
$$

IDZ006-010-011-018-031-032-190200-
CENTRAL IDAHO MOUNTAINS


CITY           SKY/WX    TMP DP  RH WIND       PRES   REMARKS
MCCALL         LGT SNOW  31  29  92 SE8       29.65F VSB 1   WCI  23
HAILEY         LGT SNOW  27  25  93 CALM      29.84F VSB 3/4
STANLEY          N/A     34  31  88 S9        29.73F WCI  27
SALMON         CLOUDY    12   7  79 N5        29.82R WCI   4
CHALLIS        CLOUDY    16  12  84 CALM      29.79F
$$

IDZ002-004-006-007-026-190200-
NORTHERN IDAHO


CITY           SKY/WX    TMP DP  RH WIND       PRES   REMARKS
LEWISTON       CLOUDY    39  30  70 NE3       29.59F
LOWELL           N/A     33  31  92 N3        29.69S
COEUR D`ALENE  CLOUDY    34  33  96 N8        29.56F WCI  27
MULLAN PASS    CLOUDY    33  31  92 CALM      29.57F
$$




USA.gov is the U.S. government's official web portal to all federal, state and local government web resources and services.